Location: Peterborough
(44.3091°N, 78.3197°W)
Time: 10:34:47
(UTC-04:00)

A-11 Canister half - Pass Details

Date: 13 September 2024
Orbit: 1515 x 1684 km, 47.2° (Epoch: 02 October)

Event Time Altitude Azimuth Distance (km) Brightness Sun altitude
Rises 21:04:56 0° 245° (WSW) 4,716 12.2 -17.9°
Reaches altitude 10° 21:08:01 10° 245° (WSW) 3,716 11.6 -18.4°
Maximum altitude 21:17:23 87° 159° (SSE) 1,526 8.9 -19.9°
Enters shadow 21:25:21 15° 71° (ENE) 3,260 10.3 -21.2°
